Voltar ao catálogo

BEIDOU 9

AtivoNavegaçãoMEO
NORAD 37763·PAYLOAD·🇨🇳 China

Lançado Jul 26, 2011 de Xichang Satellite Launch Center

Loading…

Próximas Passagens (próximas 24 horas)

TLE

AtualizadoSource: Space-Track

Época: Sep 10, 2026, 19:39 UTC

1 37763U 11038A   26253.81888678 -.00000114  00000-0  00000-0 0  9998
2 37763  54.6025 164.9115 0160322 231.0094 343.0930  1.00268280 55504

Acompanhe BEIDOU 9 em tempo real com AllMySat

Download on the App Store